This is the latest recevied weather packets stored in our database for station/object KM5R. If no packets are shown the sender has not sent any weather packets the latest 10 day(s).
| Time | Temp. | Humidity | Pressure | Rain* | Wind** | Luminosity | Snow |
|---|---|---|---|---|---|---|---|
| 1777798394 | 12.78° C | 74% | 1022.6 hPa | 0 mm | - | 0 W/m² | - |
| 1777797485 | 13.33° C | 71% | 1022.5 hPa | 0 mm | - | 0 W/m² | - |
| 1777797183 | 13.33° C | 71% | 1022.5 hPa | 0 mm | - | 0 W/m² | - |
| 1777796879 | 13.33° C | 72% | 1022.3 hPa | 0 mm | - | 0 W/m² | - |
| 1777796576 | 13.33° C | 72% | 1022.3 hPa | 0 mm | - | 0 W/m² | - |
| 1777796271 | 12.78° C | 72% | 1022.5 hPa | 0 mm | - | 0 W/m² | - |
| 1777795968 | 12.78° C | 73% | 1022.5 hPa | 0 mm | - | 0 W/m² | - |
| 1777795664 | 12.78° C | 74% | 1022.5 hPa | 0 mm | - | 0 W/m² | - |
| 1777795362 | 12.22° C | 75% | 1022.4 hPa | 0 mm | - | 0 W/m² | - |
| 1777795057 | 12.22° C | 76% | 1022.6 hPa | 0 mm | - | 0 W/m² | - |
| 1777794754 | 12.22° C | 76% | 1022.8 hPa | 0 mm | - | 0 W/m² | - |
| 1777794450 | 12.22° C | 76% | 1022.4 hPa | 0 mm | - | 0 W/m² | - |
| 1777794146 | 12.22° C | 76% | 1022.7 hPa | 0 mm | - | 0 W/m² | - |
| 1777793842 | 12.22° C | 76% | 1022.7 hPa | 0 mm | - | 0 W/m² | - |
| 1777793540 | 12.22° C | 76% | 1022.9 hPa | 0 mm | - | 0 W/m² | - |
| 1777793238 | 12.78° C | 75% | 1022.8 hPa | 0 mm | - | 0 W/m² | - |
| 1777792935 | 12.78° C | 73% | 1023 hPa | 0 mm | - | 0 W/m² | - |
| 1777792631 | 13.33° C | 73% | 1022.9 hPa | 0 mm | - | 0 W/m² | - |
| 1777792329 | 13.33° C | 72% | 1022.8 hPa | 0 mm | - | 0 W/m² | - |
| 1777792025 | 13.33° C | 71% | 1023.1 hPa | 0 mm | - | 0 W/m² | - |
| 1777791723 | 13.33° C | 71% | 1023.1 hPa | 0 mm | - | 0 W/m² | - |
| 1777791420 | 13.33° C | 71% | 1023.2 hPa | 0 mm | - | 0 W/m² | - |
| 1777791118 | 13.33° C | 71% | 1023.3 hPa | 0 mm | - | 0 W/m² | - |
| 1777790815 | 13.33° C | 71% | 1023.2 hPa | 0 mm | - | 0 W/m² | - |
| 1777790512 | 13.89° C | 70% | 1023.1 hPa | 0 mm | - | 0 W/m² | - |
* Rain latest hour (hover to see other rain measurements)
** Current wind speed in m/s (hover to see current wind gust speed)